Regional Weather Roundup
Issued by NWS Charleston, SC

Current Version | Previous Version | Graphics & Text | Print | Product List | Glossary On
Versions: 1 2 3 4 5 6 7 8 9 10 11 12 13 14 15 16 17 18 19 20 21 22 23 24 25 26 27 28 29 30 31 32 33 34 35 36 37 38 39 40 41 42 43 44 45 46 47 48 49 50
000
ASUS42 KCHS 300210
RWRCHS
REGIONAL WEATHER ROUNDUP
NATIONAL WEATHER SERVICE CHARLESTON SC
1000 PM EDT WED OCT 29 2014

NOTE: "FAIR" INDICATES FEW OR NO CLOUDS BELOW 12,000 FEET WITH NO
SIGNIFICANT WEATHER AND/OR OBSTRUCTIONS TO VISIBILITY.

NOT ALL STATIONS ARE QUALITY CONTROLLED BY THE NATIONAL
WEATHER SERVICE. USE DATA WITH CAUTION...ESPECIALLY
DEWPOINT OBSERVATIONS.

SCZ027-030-031-034>040-042>050-300300-
...SOUTH CAROLINA...

CITY           SKY/WX    TMP DP  RH WIND       PRES   REMARKS
N CHARLESTON   PTCLDY    70  66  87 W3        29.98R
WATERFRONT PRK   N/A     73 N/A N/A SW6         N/A
FORT JOHNSON   NOT AVBL
JOHNS ISLAND   CLEAR     72  72 100 CALM      29.98S
PINOPOLIS      NOT AVBL
MONCKS CORNER  FAIR      68  66  94 CALM      29.97S
SUMMERVILLE    MOCLDY    68  66  94 S3        29.98S
BEAUFORT MCAS  PTCLDY    71  68  90 CALM      29.92S
BEAUFORT ARPT  FAIR      72  70  94 S3        29.97S
HILTON HEAD IS NOT AVBL
GEORGETOWN     NOT AVBL
WALTERBORO     CLEAR     68 N/A N/A CALM      29.98S
ORANGEBURG     CLOUDY    67  64  90 CALM      29.97S
BARNWELL       FAIR      64  64 100 SW3       29.98S FOG
AIKEN          CLOUDY    68  64  88 W6        30.01R
MANNING        FAIR      72  64  78 SW5       29.96S
KINGSTREE      NOT AVBL
COLUMBIA       MOCLDY    69  62  78 W5        29.96R
SUMTER         MOCLDY    69  63  80 SW8       29.95R
FLORENCE       PTCLDY    65  63  93 S3        29.95R FOG
MYRTLE BEACH   CLEAR     72  63  73 SW12      29.96S
N MYRTLE BEACH PTCLDY    71  65  81 SW12      29.95F

$$

GAZ063-065-086>088-099>101-113>116-118-119-134-136>141-150-300300-
...GEORGIA...

CITY           SKY/WX    TMP DP  RH WIND       PRES   REMARKS
SAVANNAH ARPT  PTCLDY    71  66  84 S8        29.99R
HUNTER AAF     CLEAR     70  69  96 S6        29.97S
FORT STEWART   CLEAR     68  64  88 S3        29.98R
STATESBORO     NOT AVBL
SYLVANIA       CLOUDY    71  69  94 CALM      29.99S
CLAXTON        FAIR      66  66 100 CALM      29.98S
THOMSON        CLOUDY    70  66  86 W6        30.04R
AUGUSTA-BUSH   CLOUDY    68  66  93 W5        29.97S
AUGUSTA-DANIEL MOCLDY    72  61  68 W7        29.99R
SWAINSBORO     MOCLDY    66  66 100 MISG      29.99S
VIDALIA        CLOUDY    70  61  73 CALM      29.99S
ALMA           CLOUDY    70  60  70 CALM      29.99S
WAYCROSS       PTCLDY    72  64  75 W3        30.00R
JESUP          FAIR      72  68  88 SW3       30.00R
BRUNSWICK        N/A     68  64  88 CALM      30.00S
SAINT SIMONS   CLEAR     72  68  87 S5        30.00R

$$

SCZ027-028-034-036>038-045-046-048>050-GAZ119-141-300300-
...LAKE AND SUPPLEMENTAL COASTAL OBSERVATIONS...

STATION/POSITION TIME  TEMP    WIND        PRES    WAVE   SWELL
                       AIR SEA DIR/SP/G            HT/PER HT/PER/DIR
                 (UTC) (F)     (DEG/KT/KT) (MB)    (FT/S) (FT/S/D)
UPR LAKE MARION  NOT AVBL
WINYAH BAY       0100   72     220/  5     1015.0S
LAKE MURRAY      0100   72     260/  8/ 11 1014.2R
ACE BASIN NERRS  0100   69        CALM     1015.0S
FORT PULASKI     0200   72     170/  2/  4 1015.5R
SAPELO ISLAND    NOT AVBL

$$

ANZ835-935-AMZ111-154-330-350-352-354-374-450-454-472-300300-
...C-MAN AND BUOY OBSERVATIONS...

STATION/POSITION TIME  TEMP    WIND        PRES    WAVE   SWELL
                       AIR SEA DIR/SP/G            HT/PER HT/PER/DIR
                 (UTC) (F)     (DEG/KT/KT) (MB)    (FT/S) (FT/S/D)
FOLLY BEACH CMAN 0200   73     200/  9/ 11 1015.5F
BUOY 41004       0200   76 77  200/ 12/ 14 1014.8F   2/ 4   2/ 7
BUOY 41008       0200   75 74  170/ 10/ 14 1015.6S   1/ 5
5E ST. MARYS GA  0200      76                N/A     2/ 3
FRYING PAN BUOY  0200   75 73  220/ 12/ 14 1015.4F   3/ 5
BUOY 41025       0200   76     220/ 17/ 19 1013.9S   3/ 5   2/250/10
CAPE LOOKOUT NC  0200   72     220/  9/ 12 1014.2R
BUOY 41002       0148   75 76  190/  8/ 10 1017.4F   2/ 9   2/110/ 9
BUOY 41010       0200   78 81   40/  6/  8 1017.0R   2/ 6   2/110/ 6
BUOY 41012       NOT AVBL
ST AUGUSTINE FL  0200   72     230/  6/  6 1016.9R
CAPERS NEARSHORE 0100   73     220/ 12/ 14   N/A
FRIPP NEARSHORE  NOT AVBL


$$



USA.gov is the U.S. government's official web portal to all federal, state and local government web resources and services.